Location: Austin
(30.3000°N, 97.7500°W)
Time: 16:56:02
(UTC-06:00)

Daily predictions for brighter satellites

Satellite Brightness Start Highest point End
(mag) Time Altitude Azimuth Time Altitude Azimuth Time Altitude Azimuth
Cosmos 1745 Rocket 4.1 17:46:27 10° S 17:52:48 82° E 17:59:09 10° N
Ariane Rocket 4.4 17:51:34 10° ESE 17:54:50 17° ENE 17:58:07 10° NNE
H-2A R/B 4.5 17:54:34 10° E 17:56:09 12° ENE 17:57:43 10° NE
Cosmos 1633 Rocket 3.9 17:53:46 10° NNW 17:58:00 55° W 18:02:14 10° S
Abrixas rocket 4.5 17:59:00 10° WNW 18:01:05 16° NNW 18:03:11 10° N
SMAP 3.0 17:56:54 10° SSE 18:01:29 67° ENE 18:06:07 10° N
Cosmos 2251 Rocket 3.7 17:58:11 10° S 18:03:23 55° ESE 18:08:38 10° NNE
Cosmos 2228 Rocket 3.5 18:03:35 10° SSW 18:07:58 68° W 18:12:21 10° N
Cosmos 1709 Rocket 4.2 18:03:06 10° SSE 18:09:12 53° E 18:15:16 10° NNE
Cosmos 2263 4.3 18:03:35 10° S 18:09:16 63° ESE 18:14:56 10° NNE
ATLAS 2AS CENTAUR R/B 4.4 18:05:28 10° N 18:09:31 15° NE 18:13:14 10° ENE
CORIOLIS 4.1 18:05:12 10° SSE 18:10:33 69° ENE 18:15:58 10° N
ALOS 2.2 18:06:41 10° SSE 18:11:19 83° ENE 18:16:00 10° N
COSMO-SKYMED 1 2.9 18:07:23 10° NNE 18:11:33 44° E 18:15:40 10° S
METEOR-M 4.5 18:07:03 10° S 18:12:21 73° WSW 18:17:42 10° NNW
USA 161 2.0 18:14:11 16° E 18:14:17 16° E 18:15:32 10° SE
EO 1 Delta rocket 3.9 18:09:45 10° NNE 18:15:09 73° E 18:19:48 10° S
CSL-04 Rocket 3.8 18:11:32 10° SSE 18:16:37 49° ENE 18:21:41 10° N
AQUARIUS 4.3 18:12:54 10° S 18:17:23 83° WSW 18:21:54 10° NNW
USA 116 3.3 18:15:14 10° NNE 18:18:16 50° E 18:21:28 10° S
Cosmos 1943 Rocket 2.4 18:19:14 10° SSW 18:24:48 75° WNW 18:30:21 10° NNE
COSMOS 2487 3.2 18:22:34 10° N 18:25:41 30° ENE 18:28:47 10° SE
FENGYUN 3A 4.0 18:24:16 10° S 18:29:37 70° WSW 18:35:03 10° NNW
Cosmos 1331 Rocket 4.1 18:26:57 10° NNW 18:32:07 81° WSW 18:37:17 10° S
YAOGAN 1 2.8 18:30:03 10° SSE 18:34:08 44° ENE 18:38:15 10° N
Cosmos 2369 Rocket 3.1 18:30:41 10° SW 18:36:07 49° WNW 18:41:38 10° N
ATLAS CENTAUR R/B 3.7 18:34:15 10° NNE 18:35:25 12° NE 18:35:25 12° NE
Cosmos 1869 Rocket 3.8 18:33:06 10° N 18:37:16 42° E 18:41:24 10° SSE
Timation 2 Rocket 4.3 18:31:41 10° N 18:37:18 39° ENE 18:42:49 10° SE
Hubble Space Telescope 3.4 18:36:55 10° WSW 18:39:34 17° SSW 18:42:13 10° SSE
OAO 1 Rocket 4.5 18:34:43 10° WNW 18:40:04 70° NNE 18:43:33 22° E
Milstar 3 Cent rocket 3.2 18:35:22 10° W 18:40:28 55° S 18:49:29 10° ESE
ATLAS 5 CENTAUR R/B 4.2 18:35:15 10° NW 18:41:02 37° WSW 18:47:13 10° S
Cosmos 1606 3.6 18:37:49 10° SSE 18:41:07 27° E 18:41:35 27° ENE
NOAA 15 4.5 18:41:34 10° SSE 18:46:50 73° ENE 18:52:06 10° N
Cosmos 1933 3.5 18:43:17 10° S 18:47:17 73° W 18:51:20 10° N
Cosmos 1174 3.3 18:44:49 10° SSW 18:47:56 81° WNW 18:50:11 21° NNE
Atlas Centaur 2 3.3 18:45:15 10° W 18:50:50 37° SSW 18:55:16 10° SE
Envisat 3.6 18:52:26 10° SE 18:57:07 32° ENE 19:01:20 10° N
NOAA 12 4.1 18:51:42 10° SSE 18:57:02 88° WSW 19:02:23 10° NNW
Meteor 2-15 4.4 18:51:07 10° N 18:57:09 58° E 19:03:09 10° SSE
Cosmos 1809 Rocket 4.3 18:52:30 10° S 18:58:32 72° E 19:04:34 10° N
Cosmos 921 Rocket 3.3 18:55:58 10° NNW 19:00:29 71° WSW 19:04:57 10° S
deb Kosmos-1763 4.1 19:01:25 10° NNW 19:05:09 81° WSW 19:08:52 10° SSE
FengYun 1-2 T 4.2 18:59:55 10° SSE 19:05:16 58° ENE 19:10:38 10° N
IRS-1A Rocket 4.3 19:00:34 10° SSE 19:06:18 65° ENE 19:12:09 10° N
Meteor 2-14 Rocket 4.3 19:03:16 10° S 19:09:16 65° E 19:15:16 10° NNE
Cosmos 1707 Rocket 4.0 19:05:25 10° SSW 19:09:42 62° W 19:14:00 10° N
Cosmos 972 Rocket 3.9 19:04:28 10° S 19:09:52 73° ESE 19:12:31 28° NNE
CZ-4 R/B 3.1 19:10:20 10° SSW 19:13:57 34° W 19:17:39 10° NNW
Cosmos 1633 2.7 19:12:11 10° NNW 19:15:43 69° W 19:19:13 10° S
Cosmos 2181 Rocket 4.0 19:11:43 10° N 19:17:52 79° W 19:24:06 10° S
CZ-4C R/B 2.7 19:15:43 10° SW 19:20:28 50° WNW 19:23:49 21° N
Cosmos 2184 Rocket 4.0 19:25:05 10° S 19:31:28 83° W 19:37:51 10° N
Cosmos 2074 Rocket 4.0 19:26:10 10° S 19:32:23 78° W 19:38:38 10° N
Kosmos-1675 4.3 19:29:16 10° SSW 19:32:33 88° NW 19:45:36 10° NNE
Ariane Rocket 4.2 19:28:36 10° S 19:33:24 42° W 19:38:13 10° NNW
Iridium 4 Rocket 3.5 19:28:19 10° N 19:33:34 88° E 19:39:14 10° S
Meteor 1-25 Rocket 4.1 19:30:28 10° N 19:36:18 87° E 19:42:08 10° S
Cosmos 2327 Rocket 4.3 19:31:49 10° S 19:37:55 90° E 19:41:56 23° N
OAO 2 Rocket 3.4 19:34:24 10° WSW 19:38:51 65° SSW 19:38:51 65° SSW
Meteor 2-16 Rocket 4.3 19:33:29 10° S 19:39:35 87° W 19:43:09 27° N
Meteor 1-20 Rocket 4.1 19:37:47 10° N 19:43:32 86° W 19:49:07 10° S
CZ-3B Rocket 3.8 19:46:50 10° SSW 19:48:27 18° S 19:48:27 18° S
Meteor 1-14 Rocket 4.5 19:49:33 10° NNW 19:55:25 70° W 20:01:07 10° S
ATLAS 2AS CENTAUR R/B 2.9 19:54:13 10° NNW 20:00:45 64° N 20:00:45 64° N
Cosmos 2154 Rocket 4.2 19:58:37 10° S 20:03:57 64° SSW 20:03:57 64° SSW
ATLAS CENTAUR R/B 4.3 20:11:01 10° NNW 20:11:42 14° NNW 20:11:42 14° NNW
H-2A R/B 4.1 20:26:04 10° W 20:38:25 29° SW 20:38:39 29° SW
